[Iaude] MPEC G14: 2024 FD4 [a=1.22,e=0.17,i=6.3,H=27.3]
    mpec at cfa.harvard.edu 
    mpec at cfa.harvard.edu
       
    Tue Apr  2 21:53:53 EDT 2024
    
    
  
M.P.E.C. 2024-G14                                 Issued 2024 April 3, 01:52 UT
     The Minor Planet Electronic Circulars contain information on unusual
         minor planets, routine data on comets and natural satellites,
         and occasional editorial announcements.  They are published
    on behalf of Division F of the International Astronomical Union by the
          Minor Planet Center, Smithsonian Astrophysical Observatory,
                          Cambridge, MA 02138, U.S.A.
			  
             Prepared using the Tamkin Foundation Computer Network
                              MPC at CFA.HARVARD.EDU
            URL https://www.minorplanetcenter.net/    ISSN 1523-6714
                                    2024 FD4                                    
Observations:
     K24F04D*KC2024 03 31.00657 14 20 17.16 +33 52 35.4          19.7 GXEG014L51
     K24F04D KC2024 03 31.00865 14 20 17.78 +33 51 58.3          19.8 GXEG014L51
     K24F04D KC2024 03 31.01792 14 20 20.45 +33 49 11.8          19.7 GXEG014L51
     K24F04D KC2024 03 31.02104 14 20 21.31 +33 48 15.6          19.9 GXEG014L51
     K24F04D KC2024 03 31.02414 14 20 22.23 +33 47 20.7          19.8 GXEG014L51
     K24F04D KC2024 03 31.04757814 20 44.155+33 39 36.72         20.4 GVEG014J95
     K24F04D KC2024 03 31.05847914 20 47.558+33 36 24.37         20.4 GVEG014J95
     K24F04D KC2024 03 31.06469314 20 49.426+33 34 33.96         20.3 GVEG014J95
     K24F04D  C2024 03 31.20400014 22 16.383+32 53 09.09         19.9 GVEG014H01
     K24F04D  C2024 03 31.20792614 22 17.784+32 52 01.85         19.9 GVEG014H01
     K24F04D  C2024 03 31.21979114 22 21.906+32 48 37.33         20.2 GVEG014H01
     K24F04D  C2024 03 31.22465414 22 23.552+32 47 13.46         20.0 GVEG014H01
     K24F04D KC2024 03 31.90215 14 27 20.93 +29 07 04.9          20.3 GXEG014L51
     K24F04D KC2024 03 31.90433 14 27 21.60 +29 06 23.0          19.7 GXEG014L51
     K24F04D KC2024 03 31.90650 14 27 22.30 +29 05 39.4          20.0 GXEG014L51
     K24F04D KB2024 03 31.92329714 27 40.33 +28 59 03.9          19.8 GXEG014958
     K24F04D KB2024 03 31.92705014 27 41.72 +28 57 46.7          19.9 GXEG014958
     K24F04D KB2024 03 31.93080614 27 43.12 +28 56 36.2          19.7 GXEG014958
     K24F04D KB2024 04 01.00659014 28 07.96 +28 31 02.8          20.6 GXEG014I93
     K24F04D KB2024 04 01.01049514 28 09.22 +28 29 43.1          20.3 GXEG014I93
     K24F04D KB2024 04 01.01429914 28 10.36 +28 28 24.3          20.4 GXEG014I93
     K24F04D KC2024 04 02.87822314 43 16.97 +15 51 24.8          19.7 GVEG014L01
     K24F04D KC2024 04 02.87970414 43 17.54 +15 50 45.3          19.4 GVEG014L01
     K24F04D KC2024 04 02.88118414 43 18.16 +15 50 05.5          19.5 GVEG014L01
     K24F04D KC2024 04 02.88266414 43 18.81 +15 49 24.8          19.8 GVEG014L01
     K24F04D KC2024 04 02.88414714 43 19.42 +15 48 44.2          19.8 GVEG014L01
     K24F04D KC2024 04 02.90999 14 43 30.90 +15 37 06.6          19.8 GVEG014104
     K24F04D KC2024 04 02.91236 14 43 31.79 +15 36 01.6                VEG014104
Observer details:
104 San Marcello Pistoiese.  Observers P. Bacci, M. Maestripieri.  Measurer P.
    Bacci.  0.60-m f/4.0 reflector + CCD.
958 Observatoire de Dax.  Observer P. Dupouy.  0.50-m f/4.5 Reflector + CMO.
H01 Magdalena Ridge Observatory, Socorro.  Observers W. H. Ryan, E. V. Ryan.
    Measurer W. H. Ryan.  2.4-m f/8.9 Ritchey-Chretien + CCD.
I93 St Pardon de Conques.  Observer F. Losse.  0.40-m f/3.7 reflector + CCD.
J95 Great Shefford.  Observer P. Birtwhistle.  0.41-m f/6.3 Schmidt-Cassegrain
    + CCD.
L01 Visnjan Observatory, Tican.  Observers K. Korlevic, L. Poropat.  Measurer
    K. Korlevic.  1.0-m f/2.9 reflector + CCD.
L51 MARGO, Nauchnyi.  Observer G. Borisov.  0.50-m f/1.9 reflector + CCD.
Orbital elements:
2024 FD4                                                 Earth MOID = 0.0120 AU
Epoch 2024 Mar. 31.0 TT = JDT 2460400.5                 Veres                   
M 358.15699              (2000.0)            P               Q                  
n   0.72739912     Peri.  175.53706     -0.97366628     +0.22556437             
a   1.2244871      Node    17.60545     -0.21240583     -0.84483780             
e   0.1729675      Incl.    6.28017     -0.08281150     -0.48514926             
P   1.35           H   27.31          G   0.15           U   7                  
Residuals in seconds of arc
240331 L51  0.0   0.6-    240331 H01  0.0   0.0     240401 I93  0.3-  0.2+
240331 L51  0.2+  0.6-    240331 H01  0.0   0.2+    240402 L01  0.1-  0.4-
240331 L51  0.2+  0.9-    240331 L51  0.2-  1.6-    240402 L01  0.6-  0.2+
240331 L51  0.4-  1.0-    240331 L51  0.5-  0.3+    240402 L01  0.3-  0.6+
240331 L51  0.1-  0.0     240331 L51  0.2-  0.4+    240402 L01  0.4+  0.0
240331 J95  0.3-  0.2-    240331 958  0.3-  0.1+    240402 L01  0.6+  0.3-
240331 J95  0.4+  0.0     240331 958  0.2-  2.9-    240402 104  0.4+  0.2+
240331 J95  0.1-  0.1-    240331 958  0.3+  1.1+    240402 104  0.1+  0.2-
240331 H01  0.0   0.0     240401 I93  0.3-  0.3+
240331 H01  0.0   0.1+    240401 I93  0.3+  0.8+
Ephemeris:
2024 FD4                 a,e,i = 1.22, 0.17, 6                   q = 1.0127
Date    TT    R. A. (2000) Decl.     Delta      r    Elong.  Phase     V
2024 03 04    12 20 25.5 +63 29 01   0.07716 1.0336   121.1    55.2    23.8
...
2024 03 19    13 10 17.7 +59 18 30   0.04391 1.0179   119.4    58.4    22.7
...
2024 03 27    13 52 48.0 +48 01 56   0.02687 1.0137   125.8    53.0    21.4
...
2024 04 02    14 35 45.1 +22 18 36   0.01669 1.0127   141.7    37.7    20.0
2024 04 03    14 43 53.4 +15 00 44   0.01562 1.0127   145.1    34.4    19.7
2024 04 04    14 52 17.9 +06 46 58   0.01487 1.0127   147.7    31.8    19.6
...
2024 04 10    15 47 36.6 -42 04 44   0.01788 1.0139   132.1    47.2    20.4
...
2024 04 18    17 06 24.4 -66 56 00   0.03273 1.0182   114.7    63.7    22.2
...
2024 05 03    18 48 41.1 -75 51 36   0.06476 1.0339   111.9    64.8    23.7
M. P. C. Staff               (C) Copyright 2024 MPC           M.P.E.C. 2024-G14
    
    
More information about the Iaude
mailing list